Kansas Department of Transportation
RWIS(Road and Runway Information System) Map and Weather Data





Station
Surface
Air
Wind
Site IDSensor TypeLocationTemperature (°F)Temperature (°F)Humidity (%)Speed (mi/h)Gusts (mi/h)DirectionTime
123002AtmosphericBonner Springs 57160 NJun 24 2017 3:15AM
123002ApproachBonner SpringsUnavailable     Jun 24 2017 3:15AM
123002DeckBonner SpringsUnavailable     Jun 24 2017 3:15AM
123014AtmosphericBull Creek 63762 WSWJun 24 2017 3:15AM
123014DeckBull Creek66     Jun 24 2017 3:15AM
123014DepartureBull Creek68     Jun 24 2017 3:15AM
123015AtmosphericLeavenworth 597045NWJun 24 2017 3:10AM
123015DeckLeavenworth73     Jun 24 2017 3:15AM
123015DepartureLeavenworth72     Jun 24 2017 3:15AM
123020AtmosphericMayetta 63643 NNWJun 24 2017 3:15AM
123020RoadwayMayetta      Jun 24 2017 3:15AM
123020DeckMayetta59     Jun 24 2017 3:15AM
505000AtmosphericKTA 1 686424NJun 24 2017 3:10AM
505000ApproachKTA 173     Jun 24 2017 3:10AM
505000DeckKTA 175     Jun 24 2017 3:10AM
505001AtmosphericKTA 2 687822NJun 24 2017 3:10AM
505001ApproachKTA 272     Jun 24 2017 3:10AM
505001DeckKTA 275     Jun 24 2017 3:10AM
505002AtmosphericKTA 3 599900NJun 24 2017 3:10AM
505002ApproachKTA 368     Jun 24 2017 3:10AM
505002DeckKTA 372     Jun 24 2017 3:10AM
505003AtmosphericKTA 4 638046NJun 24 2017 3:10AM
505003ApproachKTA 470     Jun 24 2017 3:10AM
505003DeckKTA 470     Jun 24 2017 3:10AM
505004AtmosphericKTA 5 599944NNEJun 24 2017 3:10AM
505004RoadwayKTA 568     Jun 24 2017 3:10AM
505004RoadwayKTA 568     Jun 24 2017 3:10AM
505005AtmosphericKTA 6 579111WJun 24 2017 3:10AM
505005Approach KTA 668     Jun 24 2017 3:10AM
505005DeckKTA 664     Jun 24 2017 3:10AM
505006AtmosphericKTA 7 639300WJun 24 2017 3:10AM
505006ApproachKTA 7Unavailable     Jun 24 2017 3:10AM
505006DeckKTA 768     Jun 24 2017 3:10AM
505007AtmosphericKTA 8 638300SEJun 24 2017 3:10AM
505007ApproachKTA 872     Jun 24 2017 3:10AM
505007DeckKTA 870     Jun 24 2017 3:10AM
505008AtmosphericKTA 9 642222WNWJun 24 2017 3:10AM
505008ApproachKTA 972     Jun 24 2017 3:10AM
505008DeckKTA 968     Jun 24 2017 3:10AM
505009AtmosphericKTA 10 647511NJun 24 2017 3:10AM
505009ApproachKTA 1066     Jun 24 2017 3:10AM
505009DeckKTA 1064     Jun 24 2017 3:10AM
505010AtmosphericWebb 64884 NWJun 24 2017 3:15AM
505010DeckWebb70     Jun 24 2017 3:15AM
505010NullWebb73     Jun 24 2017 3:15AM
505014AtmosphericI-135 666436NNEJun 24 2017 3:10AM
505014ApproachI-13575     Jun 24 2017 3:15AM
505014DeckI-135Unavailable     Jun 24 2017 3:15AM
540000AtmosphericBlue Rapids 55971 WJun 24 2017 3:15AM
540000DeckBlue Rapids66     Jun 24 2017 3:15AM
540000DepartureBlue Rapids72     Jun 24 2017 3:15AM
540001AtmosphericSabetha 558512WJun 24 2017 3:10AM
540001ApproachSabetha68     Jun 24 2017 3:15AM
540001DeckSabetha64     Jun 24 2017 3:15AM
540002AtmosphericWestgate 618700WNWJun 24 2017 3:10AM
540002DeckWestgateUnavailable     Jun 24 2017 3:15AM
540002DepartureWestgate70     Jun 24 2017 3:15AM
540003AtmosphericEmporia 61801 NJun 24 2017 3:15AM
540003ApproachEmporia72     Jun 24 2017 3:15AM
540003DeckEmporia68     Jun 24 2017 3:15AM
540005AtmosphericLawrence 618412WJun 24 2017 3:10AM
540005ApproachLawrence68     Jun 24 2017 3:15AM
540005DeckLawrence86     Jun 24 2017 3:15AM
540006AtmosphericTroy      Jun 23 2017 8:45PM
540006DeckTroy      Jun 23 2017 8:45PM
540006DepartureTroy      Jun 23 2017 8:45PM
540007AtmosphericManhattan 59820 NJun 24 2017 3:15AM
540007DepartureManhattan68     Jun 24 2017 3:15AM
540007DeckManhattan73     Jun 24 2017 3:15AM
541001AtmosphericSyracuse 64701 NNWJun 24 2017 3:15AM
541001Out of Service for WinterSyracuse77     Jun 24 2017 3:15AM
541001DeckSyracuse72     Jun 24 2017 3:15AM
541002AtmosphericLiberal 637624WJun 24 2017 3:10AM
541002ApproachLiberalUnavailable     Jun 24 2017 3:15AM
541002DeckLiberalUnavailable     Jun 24 2017 3:15AM
541003AtmosphericFord 618611WJun 24 2017 3:10AM
541003DeckFord68     Jun 24 2017 3:15AM
541003DepartureFord73     Jun 24 2017 3:15AM
541004AtmosphericScott 59111 SEJun 24 2017 3:15AM
541004DepartureScott68     Jun 24 2017 3:15AM
541005AtmosphericNess 618700WNWJun 24 2017 3:10AM
541005DeckNess68     Jun 24 2017 3:15AM
541005DepartureNess72     Jun 24 2017 3:15AM
541007AtmosphericGarden City 66672 WNWJun 24 2017 3:15AM
541007ApproachGarden City64     Jun 24 2017 3:15AM
541007DeckGarden CityUnavailable     Jun 24 2017 3:15AM
543000AtmosphericJunction City 598211NNEJun 24 2017 3:10AM
543000ApproachJunction City70     Jun 24 2017 3:15AM
543000DeckJunction City66     Jun 24 2017 3:15AM
543001AtmosphericEllsworth 64422 SWJun 24 2017 3:15AM
543001RoadwayEllsworth66     Jun 24 2017 3:15AM
543004AtmosphericConcordia 57721 NWJun 24 2017 3:15AM
543004ApproachConcordiaUnavailable     Jun 24 2017 3:15AM
543004DeckConcordia68     Jun 24 2017 3:15AM
543005AtmosphericPeabody 527512NEJun 24 2017 3:10AM
543005ApproachPeabody72     Jun 24 2017 3:15AM
543005DeckPeabodyUnavailable     Jun 24 2017 3:15AM
560000AtmosphericEdson 576344EJun 24 2017 3:10AM
560000RoadwayEdson66     Jun 24 2017 3:15AM
560000RoadwayEdson63     Jun 24 2017 3:15AM
560001AtmosphericOakley 557236NJun 24 2017 3:10AM
560001ApproachOakley66     Jun 24 2017 3:15AM
560001DeckOakley63     Jun 24 2017 3:15AM
560002AtmosphericAtwood 507823SJun 24 2017 3:10AM
560002ApproachAtwood68     Jun 24 2017 3:15AM
560002DeckAtwood72     Jun 24 2017 3:15AM
560003AtmosphericJennings 469411WSWJun 24 2017 3:10AM
560003ApproachJennings66     Jun 24 2017 3:15AM
560003DeckJennings64     Jun 24 2017 3:15AM
560004AtmosphericWakeeney 646145NNEJun 24 2017 3:10AM
560004ApproachWakeeney68     Jun 24 2017 3:15AM
560004DeckWakeeney64     Jun 24 2017 3:15AM
560005AtmosphericWalker 61442 NNEJun 24 2017 3:15AM
560005ApproachWalker68     Jun 24 2017 3:15AM
560005DeckWalker72     Jun 24 2017 3:15AM
560006AtmosphericBow Creek(Stockton) 508601WJun 24 2017 3:10AM
560006ApproachBow Creek(Stockton)70     Jun 24 2017 3:15AM
560006DeckBow Creek(Stockton)66     Jun 24 2017 3:15AM
560007AtmosphericLebanon 576333NNWJun 24 2017 3:10AM
560007ApproachLebanonUnavailable     Jun 24 2017 3:15AM
560007DeckLebanonUnavailable     Jun 24 2017 3:15AM
560008AtmosphericWallace 558012WNWJun 24 2017 3:10AM
560008ApproachWallace68     Jun 24 2017 3:15AM
560008DeckWallace63     Jun 24 2017 3:15AM
572000AtmosphericGreat Bend 638746ENEJun 24 2017 3:10AM
572000ApproachGreat Bend68     Jun 24 2017 3:15AM
572000DeckGreat Bend64     Jun 24 2017 3:15AM
572001AtmosphericPratt 643301NEJun 24 2017 3:10AM
572001ApproachPratt75     Jun 24 2017 3:15AM
572001DeckPratt73     Jun 24 2017 3:15AM
572002AtmosphericAnthony 666713NNEJun 24 2017 3:10AM
572002ApproachAnthony75     Jun 24 2017 3:15AM
572002DeckAnthony73     Jun 24 2017 3:15AM
573000AtmosphericEureka 618523WNWJun 24 2017 3:10AM
573000DeckEurekaUnavailable     Jun 24 2017 3:15AM
573000DepartureEureka72     Jun 24 2017 3:15AM
573001AtmosphericGarnett 579511SJun 24 2017 3:10AM
573001ApproachGarnett68     Jun 24 2017 3:15AM
573001DeckGarnett68     Jun 24 2017 3:15AM
573002AtmosphericCaney 66732 WNWJun 24 2017 3:15AM
573002RoadwayCaney77     Jun 24 2017 3:15AM
573003AtmosphericChetopa 64811 NJun 24 2017 3:15AM
573003DeckChetopa75     Jun 24 2017 3:15AM
573003DepartureChetopa75     Jun 24 2017 3:15AM
573004AtmosphericChanute 63942 NJun 24 2017 3:15AM
573004ApproachChanute75     Jun 24 2017 3:15AM
573004DeckChanuteUnavailable     Jun 24 2017 3:15AM